Regional Weather Roundup
Issued by NWS Kansas City/Pleasant Hill, MO

Home | Current Version | Previous Version | Text Only | Print | Product List | Glossary On
Versions: 1 2 3 4 5 6 7 8 9 10 11 12 13 14 15 16 17 18 19 20 21 22 23 24 25 26 27 28 29 30 31 32 33 34 35 36 37 38 39 40 41 42 43 44 45 46 47 48 49 50
386
ASUS43 KEAX 300010
RWREAX

WEATHER ROUNDUP FOR EASTERN KANSAS AND NORTHWEST MISSOURI
NATIONAL WEATHER SERVICE KANSAS CITY/PLEASANT HILL MO
700 PM CDT FRI JUL 29 2016

KSZ040-057-103>105-MOZ028-029-037-043-300100-
...KANSAS CITY METROPOLITAN AREA...

CITY           SKY/WX    TMP DP  RH WIND       PRES   REMARKS
K.C. INTL      MOSUNNY   81  62  52 N8        29.97F
6HR MIN TEMP:  80; 6HR MAX TEMP:  85;

K.C. DOWNTOWN  SUNNY     84  63  49 N8        29.95F
6HR MIN TEMP:  82; 6HR MAX TEMP:  87;

LEES SUMMIT    SUNNY     82  64  54 N10       29.97F
6HR MIN TEMP:  80; 6HR MAX TEMP:  86;

OLATHE - IXD   MOSUNNY   82  63  52 N8        29.98S
6HR MIN TEMP:  80; 6HR MAX TEMP:  85;

OLATHE - OJC   MOSUNNY   83  61  47 N10       29.97S
6HR MIN TEMP:  80; 6HR MAX TEMP:  86;

LAWRENCE       SUNNY     81  66  60 NE8       29.96F

$$

MOZ001>008-011>017-020>025-030>033-038>040-044>046-053-054-300100-
...NORTHERN AND CENTRAL MISSOURI...

CITY           SKY/WX    TMP DP  RH WIND       PRES   REMARKS
ST. JOSEPH     SUNNY     81  60  48 NW9       29.97F
6HR MIN TEMP:  80; 6HR MAX TEMP:  84;

MOSBY          CLEAR     81  59  47 NW7       29.96F
WHITEMAN AFB   MOSUNNY   82  67  62 N9        29.94F
6HR MIN TEMP:  80; 6HR MAX TEMP:  84;

CLINTON        SUNNY     82  68  61 N7        29.95F
SEDALIA        MOSUNNY   83  68  60 N8        29.97S
6HR MIN TEMP:  81; 6HR MAX TEMP:  85;

WARSAW         NOT AVBL
CHILLICOTHE      N/A     83  59  44 NW7       29.96F
6HR MIN TEMP:  81; 6HR MAX TEMP:  86;

KIRKSVILLE     SUNNY     78  61  55 N6        29.96F
6HR MIN TEMP:  78; 6HR MAX TEMP:  83;


$$

MOZ041-047>049-056>058-063>065-088>090-097-300100-
...EASTERN AND SOUTHERN MISSOURI...

CITY           SKY/WX    TMP DP  RH WIND       PRES   REMARKS
ST. LOUIS INTL PTSUNNY   83  68  60 N12       29.92S
6HR MIN TEMP:  82; 6HR MAX TEMP:  88;

SPIRIT OF STL  CLOUDY    83  70  64 N9        29.90S
COLUMBIA       SUNNY     81  66  60 NW10      29.95F
JEFFERSON CITY SUNNY     83  68  60 NW9       29.93S
ROLLA          MOSUNNY   80  70  71 W8        29.94F
OSAGE BEACH    MOSUNNY   78  72  81 SW5       29.96S
SPRINGFIELD    SUNNY     83  67  58 N10       29.95F
BRANSON        MOSUNNY   79  72  78 CALM      29.97F
JOPLIN         SUNNY     85  69  58 N8        29.95F
WEST PLAINS    CLOUDY    75  68  78 SW3       29.98F

$$

IAZ060-094-KSZ022-034>040-054-083-096-NEZ052-066-093-300100-
...KANSAS...SOUTHEAST NEBRASKA AND IOWA...

CITY           SKY/WX    TMP DP  RH WIND       PRES   REMARKS
TOPEKA         PTSUNNY   82  66  58 NE7       29.97S
6HR MIN TEMP:  81; 6HR MAX TEMP:  86;

MANHATTAN      MOSUNNY   84  66  54 VRB3      29.96F
EMPORIA        CLOUDY    82  68  62 E5        29.97F
CHANUTE        PTSUNNY   83  69  62 NE6       29.96S
WICHITA        MOSUNNY   87  66  49 N8        29.96F
OMAHA          MOSUNNY   79  63  57 NE10      29.99F
LINCOLN        SUNNY     81  57  43 NE9       30.00F
FALLS CITY     SUNNY     80  61  52 N5        29.98F
LAMONI         SUNNY     74  65  73 N13       29.99S
DES MOINES     LGT RAIN  71  64  78 N6        29.99S

$$





USA.gov is the U.S. government's official web portal to all federal, state and local government web resources and services.